Location: Cedar Ridge
(38.0658°N, 120.2769°W)
Time: 21:34:10
(UTC+00:00)

Cosmos 1378 - Pass Details

Date: 10 September 2024
Orbit: 371 x 376 km, 82.5° (Epoch: 12 October)

Event Time Altitude Azimuth Distance (km) Brightness Sun altitude
Rises 12:48:10 0° 169° (S) 2,215 6.4 -10.7°
Reaches altitude 10° 12:50:13 10° 160° (SSE) 1,374 5.4 -10.3°
Maximum altitude 12:52:57 34° 93° (E) 648 4.5 -9.8°
Drops below altitude 10° 12:55:43 10° 26° (NNE) 1,401 6.0 -9.2°
Sets 12:57:50 0° 17° (NNE) 2,267 6.9 -8.8°
